Back to catalog

DELTA 1 DEB

AliveSSO
NORAD 12209·DEBRIS·🇺🇸 United States

Launched Mar 5, 1978 from Vandenberg Space Force Base

Loading…

Next Passes (next 24 hours)

TLE

FreshSource: Space-Track

Epoch: Sep 14, 2026, 13:55 UTC

1 12209U 78026BA  26257.58044228  .00000606  00000-0  20512-3 0  9997
2 12209  98.6089 290.0758 0057052 126.0495  25.6546 14.39449364361053

Track DELTA 1 DEB in real time with AllMySat

Download on the App Store